Wetterdaten: Donnerstag, 04.09.2014
Datum Zeit Temperatur Luftfeuchte Luftdruck Regen Wind Richtung Richtung Taupunkt Windchill Windben
04.09.2014 00:00 12,5 C 92 % 1019,1 hPa 0,0 l/m 2,4 km/h (1 Bft) O-SO 112 11,2 C 12,3 C 2,4 km/h (1 Bft)
04.09.2014 00:05 12,5 C 92 % 1019,1 hPa 0,0 l/m 2,7 km/h (1 Bft) NO 45 11,2 C 12,3 C 3,2 km/h (1 Bft)
04.09.2014 00:10 12,5 C 92 % 1019,1 hPa 0,0 l/m 2,9 km/h (1 Bft) N 360 11,2 C 12,3 C 1,9 km/h (1 Bft)
04.09.2014 00:15 12,5 C 92 % 1019,2 hPa 0,0 l/m 2,9 km/h (1 Bft) O-NO 67 11,2 C 12,3 C 7,2 km/h (2 Bft)
04.09.2014 00:20 12,4 C 92 % 1019,2 hPa 0,0 l/m 3,2 km/h (1 Bft) O-NO 67 11,1 C 12,3 C 3,5 km/h (1 Bft)
04.09.2014 00:25 12,4 C 92 % 1019,2 hPa 0,0 l/m 3,5 km/h (1 Bft) NO 45 11,1 C 12,3 C 7,6 km/h (2 Bft)
04.09.2014 00:30 12,4 C 92 % 1019,2 hPa 0,0 l/m 3,4 km/h (1 Bft) O-NO 67 11,1 C 12,3 C 4,7 km/h (1 Bft)
04.09.2014 00:35 12,4 C 92 % 1019,0 hPa 0,0 l/m 3,5 km/h (1 Bft) N-NO 22 11,1 C 12,3 C 8,4 km/h (2 Bft)
04.09.2014 00:40 12,4 C 92 % 1019,0 hPa 0,0 l/m 3,1 km/h (1 Bft) N-NO 22 11,1 C 12,3 C 2,9 km/h (1 Bft)
04.09.2014 00:45 12,4 C 92 % 1019,0 hPa 0,0 l/m 2,7 km/h (1 Bft) N-NO 22 11,1 C 12,3 C 5,8 km/h (2 Bft)
04.09.2014 00:50 12,4 C 92 % 1019,0 hPa 0,0 l/m 3,2 km/h (1 Bft) O-NO 67 11,1 C 12,3 C 8,9 km/h (2 Bft)
04.09.2014 00:55 12,4 C 92 % 1018,8 hPa 0,0 l/m 4,7 km/h (1 Bft) O-NO 67 11,1 C 12,2 C 9,3 km/h (2 Bft)
04.09.2014 01:00 12,4 C 92 % 1018,8 hPa 0,0 l/m 5,0 km/h (1 Bft) O-NO 67 11,1 C 12,2 C 1,8 km/h (1 Bft)
04.09.2014 01:05 12,3 C 92 % 1018,8 hPa 0,0 l/m 4,3 km/h (1 Bft) O-NO 67 11,0 C 12,2 C 10,0 km/h (2 Bft)
04.09.2014 01:10 12,3 C 92 % 1018,8 hPa 0,0 l/m 3,7 km/h (1 Bft) O 90 11,0 C 12,1 C 3,5 km/h (1 Bft)
04.09.2014 01:15 12,3 C 92 % 1018,3 hPa 0,0 l/m 3,5 km/h (1 Bft) NW 315 11,0 C 12,1 C 2,6 km/h (1 Bft)
04.09.2014 01:20 12,3 C 92 % 1018,3 hPa 0,0 l/m 3,5 km/h (1 Bft) O-NO 67 11,0 C 12,1 C 3,4 km/h (1 Bft)
04.09.2014 01:25 12,3 C 92 % 1018,3 hPa 0,0 l/m 4,0 km/h (1 Bft) O-NO 67 11,0 C 12,1 C 7,6 km/h (2 Bft)
04.09.2014 01:30 12,3 C 92 % 1018,3 hPa 0,0 l/m 4,0 km/h (1 Bft) SO 135 11,0 C 12,1 C 4,3 km/h (1 Bft)
04.09.2014 01:35 12,3 C 92 % 1018,6 hPa 0,0 l/m 2,6 km/h (1 Bft) O-NO 67 11,0 C 12,1 C 6,8 km/h (2 Bft)
04.09.2014 01:40 12,3 C 92 % 1018,6 hPa 0,0 l/m 2,3 km/h (1 Bft) O-NO 67 11,0 C 12,1 C 2,3 km/h (1 Bft)
04.09.2014 01:45 12,3 C 92 % 1018,6 hPa 0,0 l/m 1,9 km/h (1 Bft) O 90 11,0 C 12,1 C 4,0 km/h (1 Bft)
04.09.2014 01:50 12,2 C 93 % 1018,6 hPa 0,0 l/m 2,1 km/h (1 Bft) O-NO 67 11,1 C 12,1 C 6,4 km/h (2 Bft)
04.09.2014 01:55 12,2 C 93 % 1018,6 hPa 0,0 l/m 3,2 km/h (1 Bft) O 90 11,1 C 12,1 C 3,9 km/h (1 Bft)
04.09.2014 02:00 12,2 C 93 % 1018,6 hPa 0,0 l/m 2,9 km/h (1 Bft) O 90 11,1 C 12,1 C 3,7 km/h (1 Bft)
04.09.2014 02:05 12,2 C 93 % 1018,6 hPa 0,0 l/m 3,1 km/h (1 Bft) O-SO 112 11,1 C 12,1 C 2,7 km/h (1 Bft)
04.09.2014 02:10 12,2 C 93 % 1018,6 hPa 0,0 l/m 4,0 km/h (1 Bft) O-NO 67 11,1 C 12,0 C 6,4 km/h (2 Bft)
04.09.2014 02:15 12,2 C 93 % 1018,6 hPa 0,0 l/m 4,0 km/h (1 Bft) SW 225 11,1 C 12,0 C 6,9 km/h (2 Bft)
04.09.2014 02:20 12,2 C 93 % 1018,6 hPa 0,0 l/m 3,7 km/h (1 Bft) SO 135 11,1 C 12,0 C 6,8 km/h (2 Bft)
04.09.2014 02:25 12,1 C 93 % 1018,6 hPa 0,0 l/m 3,5 km/h (1 Bft) SO 135 11,0 C 12,0 C 5,8 km/h (2 Bft)
04.09.2014 02:30 12,1 C 93 % 1018,6 hPa 0,0 l/m 3,4 km/h (1 Bft) O 90 11,0 C 12,0 C 4,3 km/h (1 Bft)
04.09.2014 02:35 12,1 C 93 % 1018,4 hPa 0,0 l/m 3,5 km/h (1 Bft) NO 45 11,0 C 12,0 C 5,0 km/h (1 Bft)
04.09.2014 02:40 12,1 C 93 % 1018,4 hPa 0,0 l/m 3,5 km/h (1 Bft) NO 45 11,0 C 11,9 C 4,2 km/h (1 Bft)
04.09.2014 02:45 12,1 C 93 % 1018,4 hPa 0,0 l/m 3,4 km/h (1 Bft) O-NO 67 11,0 C 11,9 C 3,7 km/h (1 Bft)
04.09.2014 02:50 12,1 C 93 % 1018,4 hPa 0,0 l/m 3,5 km/h (1 Bft) O-NO 67 11,0 C 12,0 C 4,5 km/h (1 Bft)
04.09.2014 02:55 12,1 C 93 % 1018,3 hPa 0,0 l/m 3,9 km/h (1 Bft) O-NO 67 11,0 C 12,0 C 7,9 km/h (2 Bft)
04.09.2014 03:00 12,1 C 93 % 1018,3 hPa 0,0 l/m 3,5 km/h (1 Bft) O-NO 67 11,0 C 12,0 C 5,5 km/h (1 Bft)
04.09.2014 03:05 12,1 C 93 % 1018,3 hPa 0,0 l/m 3,9 km/h (1 Bft) O-NO 67 11,0 C 12,0 C 6,1 km/h (2 Bft)
04.09.2014 03:10 12,1 C 93 % 1018,3 hPa 0,0 l/m 4,0 km/h (1 Bft) NO 45 11,0 C 12,0 C 3,7 km/h (1 Bft)
04.09.2014 03:15 12,1 C 93 % 1018,2 hPa 0,0 l/m 3,4 km/h (1 Bft) O 90 11,0 C 12,0 C 10,3 km/h (2 Bft)
04.09.2014 03:20 12,1 C 93 % 1018,2 hPa 0,0 l/m 3,4 km/h (1 Bft) N-NO 22 11,0 C 12,0 C 5,8 km/h (2 Bft)
04.09.2014 03:25 12,1 C 93 % 1018,2 hPa 0,0 l/m 3,5 km/h (1 Bft) NO 45 11,0 C 11,9 C 6,3 km/h (2 Bft)
04.09.2014 03:30 12,1 C 93 % 1018,2 hPa 0,0 l/m 3,2 km/h (1 Bft) N 360 11,0 C 11,9 C 4,2 km/h (1 Bft)
04.09.2014 03:35 12,1 C 93 % 1018,3 hPa 0,0 l/m 3,1 km/h (1 Bft) S 180 11,0 C 11,9 C 2,1 km/h (1 Bft)
04.09.2014 03:40 12,1 C 93 % 1018,3 hPa 0,0 l/m 2,9 km/h (1 Bft) O-SO 112 11,0 C 11,9 C 5,8 km/h (2 Bft)
04.09.2014 03:44 12,1 C 93 % 1018,3 hPa 0,0 l/m 2,6 km/h (1 Bft) O-NO 67 11,0 C 11,9 C 1,8 km/h (1 Bft)
04.09.2014 03:45 12,1 C 93 % 1018,3 hPa 0,0 l/m 2,6 km/h (1 Bft) O-NO 67 11,0 C 11,9 C 1,8 km/h (1 Bft)
04.09.2014 03:50 12,0 C 93 % 1018,3 hPa 0,0 l/m 2,3 km/h (1 Bft) SW 225 10,9 C 11,9 C 3,1 km/h (1 Bft)
04.09.2014 03:55 12,0 C 93 % 1018,2 hPa 0,0 l/m 1,8 km/h (1 Bft) O-NO 67 10,9 C 11,9 C 4,2 km/h (1 Bft)
04.09.2014 04:00 12,0 C 93 % 1018,2 hPa 0,0 l/m 2,7 km/h (1 Bft) O 90 10,9 C 11,9 C 4,0 km/h (1 Bft)
04.09.2014 04:05 12,0 C 93 % 1018,2 hPa 0,0 l/m 3,2 km/h (1 Bft) S-SW 202 10,9 C 11,9 C 2,7 km/h (1 Bft)
04.09.2014 04:10 12,0 C 93 % 1018,2 hPa 0,0 l/m 2,6 km/h (1 Bft) O-NO 67 10,9 C 11,9 C 2,4 km/h (1 Bft)
04.09.2014 04:15 12,0 C 93 % 1018,2 hPa 0,0 l/m 3,1 km/h (1 Bft) NO 45 10,9 C 11,9 C 5,8 km/h (2 Bft)
04.09.2014 04:20 12,0 C 93 % 1018,2 hPa 0,0 l/m 3,7 km/h (1 Bft) O-NO 67 10,9 C 11,9 C 4,8 km/h (1 Bft)
04.09.2014 04:25 12,0 C 93 % 1018,2 hPa 0,0 l/m 3,4 km/h (1 Bft) N-NO 22 10,9 C 11,9 C 0,0 km/h (0 Bft)
04.09.2014 04:30 12,0 C 93 % 1018,2 hPa 0,0 l/m 2,4 km/h (1 Bft) NO 45 10,9 C 11,9 C 2,3 km/h (1 Bft)
04.09.2014 04:35 12,0 C 93 % 1018,0 hPa 0,0 l/m 1,8 km/h (1 Bft) N-NO 22 10,9 C 11,9 C 3,5 km/h (1 Bft)
04.09.2014 04:40 12,0 C 93 % 1018,0 hPa 0,0 l/m 2,7 km/h (1 Bft) O-NO 67 10,9 C 11,9 C 7,2 km/h (2 Bft)
04.09.2014 04:45 12,0 C 94 % 1018,0 hPa 0,0 l/m 3,4 km/h (1 Bft) NO 45 11,1 C 11,9 C 6,1 km/h (2 Bft)
04.09.2014 04:50 12,0 C 94 % 1018,0 hPa 0,0 l/m 3,4 km/h (1 Bft) NO 45 11,1 C 11,9 C 1,9 km/h (1 Bft)
04.09.2014 04:55 12,0 C 94 % 1017,9 hPa 0,0 l/m 2,4 km/h (1 Bft) O-NO 67 11,1 C 11,9 C 0,0 km/h (0 Bft)
04.09.2014 05:00 12,0 C 94 % 1017,9 hPa 0,0 l/m 1,1 km/h (1 Bft) SO 135 11,1 C 11,9 C 2,1 km/h (1 Bft)
04.09.2014 05:05 11,9 C 94 % 1017,9 hPa 0,0 l/m 1,8 km/h (1 Bft) O 90 11,0 C 11,8 C 2,9 km/h (1 Bft)
04.09.2014 05:10 11,9 C 94 % 1017,9 hPa 0,0 l/m 2,4 km/h (1 Bft) O-NO 67 11,0 C 11,8 C 3,1 km/h (1 Bft)
04.09.2014 05:15 11,9 C 94 % 1017,8 hPa 0,0 l/m 2,3 km/h (1 Bft) NO 45 11,0 C 11,8 C 3,2 km/h (1 Bft)
04.09.2014 05:20 11,9 C 94 % 1017,8 hPa 0,0 l/m 2,3 km/h (1 Bft) N-NO 22 11,0 C 11,8 C 0,0 km/h (0 Bft)
04.09.2014 05:25 11,9 C 94 % 1017,8 hPa 0,0 l/m 1,1 km/h (1 Bft) O 90 11,0 C 11,7 C 0,0 km/h (0 Bft)
04.09.2014 05:30 11,9 C 94 % 1017,8 hPa 0,0 l/m 0,6 km/h (0 Bft) N-NO 22 11,0 C 11,7 C 0,0 km/h (0 Bft)
04.09.2014 05:35 11,9 C 94 % 1018,0 hPa 0,0 l/m 1,1 km/h (1 Bft) SO 135 11,0 C 11,7 C 2,4 km/h (1 Bft)
04.09.2014 05:40 11,9 C 94 % 1018,0 hPa 0,0 l/m 1,3 km/h (1 Bft) N-NO 22 11,0 C 11,7 C 5,0 km/h (1 Bft)
04.09.2014 05:45 11,8 C 94 % 1018,0 hPa 0,0 l/m 2,3 km/h (1 Bft) N-NO 22 10,9 C 11,7 C 1,8 km/h (1 Bft)
04.09.2014 05:50 11,8 C 94 % 1018,0 hPa 0,0 l/m 2,6 km/h (1 Bft) O-SO 112 10,9 C 11,6 C 0,0 km/h (0 Bft)
04.09.2014 05:55 11,8 C 94 % 1017,8 hPa 0,0 l/m 1,4 km/h (1 Bft) NO 45 10,9 C 11,6 C 0,0 km/h (0 Bft)
04.09.2014 06:00 11,8 C 94 % 1017,8 hPa 0,0 l/m 0,8 km/h (0 Bft) O-NO 67 10,9 C 11,6 C 1,9 km/h (1 Bft)
04.09.2014 06:05 11,8 C 94 % 1017,8 hPa 0,0 l/m 0,5 km/h (0 Bft) O 90 10,9 C 11,6 C 0,0 km/h (0 Bft)
04.09.2014 06:10 11,8 C 94 % 1017,8 hPa 0,0 l/m 1,1 km/h (1 Bft) O-NO 67 10,9 C 11,6 C 3,1 km/h (1 Bft)
04.09.2014 06:15 11,8 C 94 % 1017,9 hPa 0,0 l/m 1,6 km/h (1 Bft) O-NO 67 10,9 C 11,6 C 1,9 km/h (1 Bft)
04.09.2014 06:20 11,8 C 94 % 1017,9 hPa 0,0 l/m 1,3 km/h (1 Bft) S 180 10,9 C 11,6 C 2,6 km/h (1 Bft)
04.09.2014 06:25 11,7 C 94 % 1017,9 hPa 0,0 l/m 1,9 km/h (1 Bft) O-NO 67 10,8 C 11,6 C 4,3 km/h (1 Bft)
04.09.2014 06:30 11,7 C 94 % 1017,9 hPa 0,0 l/m 2,3 km/h (1 Bft) NO 45 10,8 C 11,6 C 2,6 km/h (1 Bft)
04.09.2014 06:35 11,7 C 94 % 1017,8 hPa 0,0 l/m 2,6 km/h (1 Bft) O 90 10,8 C 11,6 C 5,3 km/h (1 Bft)
04.09.2014 06:40 11,7 C 94 % 1017,8 hPa 0,0 l/m 2,4 km/h (1 Bft) O-SO 112 10,8 C 11,6 C 1,6 km/h (1 Bft)
04.09.2014 06:45 11,7 C 94 % 1017,8 hPa 0,0 l/m 2,6 km/h (1 Bft) NO 45 10,8 C 11,6 C 2,1 km/h (1 Bft)
04.09.2014 06:50 11,7 C 94 % 1017,8 hPa 0,0 l/m 1,6 km/h (1 Bft) N-NO 22 10,8 C 11,6 C 0,0 km/h (0 Bft)
04.09.2014 06:55 11,8 C 94 % 1017,8 hPa 0,0 l/m 0,8 km/h (0 Bft) O-SO 112 10,9 C 11,6 C 2,3 km/h (1 Bft)
04.09.2014 07:00 11,8 C 94 % 1017,8 hPa 0,0 l/m 1,0 km/h (0 Bft) O 90 10,9 C 11,6 C 3,7 km/h (1 Bft)
04.09.2014 07:05 11,8 C 94 % 1017,8 hPa 0,0 l/m 1,6 km/h (1 Bft) N-NO 22 10,9 C 11,6 C 0,0 km/h (0 Bft)
04.09.2014 07:10 11,8 C 94 % 1017,8 hPa 0,0 l/m 1,6 km/h (1 Bft) NO 45 10,9 C 11,6 C 5,3 km/h (1 Bft)
04.09.2014 07:15 11,8 C 94 % 1017,8 hPa 0,0 l/m 1,1 km/h (1 Bft) N-NO 22 10,9 C 11,6 C 0,0 km/h (0 Bft)
04.09.2014 07:20 11,8 C 94 % 1017,8 hPa 0,0 l/m 1,1 km/h (1 Bft) N-NO 22 10,9 C 11,6 C 0,0 km/h (0 Bft)
04.09.2014 07:25 11,9 C 94 % 1017,8 hPa 0,0 l/m 0,8 km/h (0 Bft) O-SO 112 11,0 C 11,7 C 3,4 km/h (1 Bft)
04.09.2014 07:30 11,9 C 94 % 1017,8 hPa 0,0 l/m 1,4 km/h (1 Bft) O 90 11,0 C 11,7 C 0,0 km/h (0 Bft)
04.09.2014 07:35 11,9 C 94 % 1017,9 hPa 0,0 l/m 1,8 km/h (1 Bft) O-NO 67 11,0 C 11,7 C 2,9 km/h (1 Bft)
04.09.2014 07:40 11,9 C 94 % 1017,9 hPa 0,0 l/m 1,1 km/h (1 Bft) O-NO 67 11,0 C 11,8 C 2,4 km/h (1 Bft)
04.09.2014 07:45 12,0 C 94 % 1017,9 hPa 0,0 l/m 1,6 km/h (1 Bft) O-NO 67 11,1 C 11,9 C 2,9 km/h (1 Bft)
04.09.2014 07:50 12,0 C 94 % 1017,9 hPa 0,0 l/m 1,4 km/h (1 Bft) N-NO 22 11,1 C 11,9 C 2,9 km/h (1 Bft)
04.09.2014 07:55 12,0 C 94 % 1017,9 hPa 0,0 l/m 1,0 km/h (0 Bft) O-NO 67 11,1 C 11,9 C 2,7 km/h (1 Bft)
04.09.2014 08:00 12,0 C 94 % 1017,9 hPa 0,0 l/m 1,0 km/h (0 Bft) N-NO 22 11,1 C 11,9 C 1,8 km/h (1 Bft)
04.09.2014 08:05 12,1 C 94 % 1017,9 hPa 0,0 l/m 0,8 km/h (0 Bft) NO 45 11,2 C 11,9 C 0,0 km/h (0 Bft)
04.09.2014 08:10 12,1 C 94 % 1017,9 hPa 0,0 l/m 0,5 km/h (0 Bft) N-NW 337 11,2 C 12,0 C 0,0 km/h (0 Bft)
04.09.2014 08:15 12,1 C 94 % 1017,9 hPa 0,0 l/m 0,6 km/h (0 Bft) N-NO 22 11,2 C 12,1 C 1,9 km/h (1 Bft)
04.09.2014 08:20 12,2 C 94 % 1017,9 hPa 0,0 l/m 0,8 km/h (0 Bft) S-SO 157 11,3 C 12,1 C 0,0 km/h (0 Bft)
04.09.2014 08:25 12,2 C 94 % 1017,9 hPa 0,0 l/m 1,0 km/h (0 Bft) N-NO 22 11,3 C 12,1 C 2,9 km/h (1 Bft)
04.09.2014 08:30 12,2 C 94 % 1017,9 hPa 0,0 l/m 1,6 km/h (1 Bft) NO 45 11,3 C 12,2 C 2,6 km/h (1 Bft)
04.09.2014 08:35 12,3 C 93 % 1018,1 hPa 0,0 l/m 2,1 km/h (1 Bft) O 90 11,2 C 12,3 C 2,7 km/h (1 Bft)
04.09.2014 08:40 12,4 C 93 % 1018,1 hPa 0,0 l/m 1,6 km/h (1 Bft) O-NO 67 11,3 C 12,3 C 1,6 km/h (1 Bft)
04.09.2014 08:45 12,4 C 93 % 1018,1 hPa 0,0 l/m 1,3 km/h (1 Bft) NO 45 11,3 C 12,5 C 1,9 km/h (1 Bft)
04.09.2014 08:50 12,5 C 93 % 1018,1 hPa 0,0 l/m 1,4 km/h (1 Bft) N-NO 22 11,4 C 12,5 C 0,0 km/h (0 Bft)
04.09.2014 08:55 12,6 C 93 % 1018,1 hPa 0,0 l/m 1,3 km/h (1 Bft) O-NO 67 11,5 C 12,5 C 3,1 km/h (1 Bft)
04.09.2014 09:00 12,7 C 93 % 1018,1 hPa 0,0 l/m 1,4 km/h (1 Bft) O-SO 112 11,6 C 12,6 C 2,6 km/h (1 Bft)
04.09.2014 09:05 12,8 C 93 % 1018,1 hPa 0,0 l/m 1,8 km/h (1 Bft) NW 315 11,7 C 12,8 C 1,9 km/h (1 Bft)
04.09.2014 09:10 13,0 C 92 % 1018,1 hPa 0,0 l/m 1,6 km/h (1 Bft) N-NW 337 11,7 C 13,0 C 2,9 km/h (1 Bft)
04.09.2014 09:15 12,8 C 93 % 1018,1 hPa 0,0 l/m 1,9 km/h (1 Bft) O-NO 67 11,7 C 13,0 C 6,1 km/h (2 Bft)
04.09.2014 09:20 12,7 C 92 % 1018,1 hPa 0,0 l/m 1,9 km/h (1 Bft) W-SW 247 11,4 C 12,9 C 0,0 km/h (0 Bft)
04.09.2014 09:25 13,0 C 91 % 1018,1 hPa 0,0 l/m 2,1 km/h (1 Bft) O 90 11,6 C 13,1 C 4,5 km/h (1 Bft)
04.09.2014 09:30 13,0 C 90 % 1018,1 hPa 0,0 l/m 2,4 km/h (1 Bft) NO 45 11,4 C 13,3 C 0,0 km/h (0 Bft)
04.09.2014 09:35 13,2 C 90 % 1018,3 hPa 0,0 l/m 1,9 km/h (1 Bft) O-NO 67 11,6 C 13,4 C 2,9 km/h (1 Bft)
04.09.2014 09:40 13,3 C 90 % 1018,3 hPa 0,0 l/m 1,6 km/h (1 Bft) N-NO 22 11,7 C 13,5 C 1,6 km/h (1 Bft)
04.09.2014 09:45 13,5 C 89 % 1018,3 hPa 0,0 l/m 1,9 km/h (1 Bft) O-NO 67 11,7 C 13,8 C 2,1 km/h (1 Bft)
04.09.2014 09:50 13,6 C 89 % 1018,3 hPa 0,0 l/m 1,6 km/h (1 Bft) N-NO 22 11,8 C 14,0 C 0,0 km/h (0 Bft)
04.09.2014 09:55 13,6 C 88 % 1018,3 hPa 0,0 l/m 1,3 km/h (1 Bft) S 180 11,6 C 14,1 C 0,0 km/h (0 Bft)
04.09.2014 10:00 13,9 C 88 % 1018,3 hPa 0,0 l/m 0,6 km/h (0 Bft) NW 315 11,9 C 14,3 C 0,0 km/h (0 Bft)
04.09.2014 10:05 14,2 C 88 % 1018,3 hPa 0,0 l/m 0,3 km/h (0 Bft) N-NO 22 12,2 C 14,7 C 3,1 km/h (1 Bft)
04.09.2014 10:10 14,2 C 87 % 1018,3 hPa 0,0 l/m 0,8 km/h (0 Bft) W-NW 292 12,1 C 14,7 C 2,4 km/h (1 Bft)
04.09.2014 10:15 14,1 C 87 % 1018,5 hPa 0,0 l/m 1,1 km/h (1 Bft) NW 315 12,0 C 14,7 C 2,4 km/h (1 Bft)
04.09.2014 10:20 14,1 C 87 % 1018,5 hPa 0,0 l/m 1,3 km/h (1 Bft) O-NO 67 12,0 C 14,7 C 2,1 km/h (1 Bft)
04.09.2014 10:25 13,9 C 86 % 1018,5 hPa 0,0 l/m 2,3 km/h (1 Bft) N 360 11,6 C 14,5 C 1,6 km/h (1 Bft)
04.09.2014 10:30 13,8 C 86 % 1018,5 hPa 0,0 l/m 1,8 km/h (1 Bft) N-NW 337 11,5 C 14,5 C 2,6 km/h (1 Bft)
04.09.2014 10:35 13,7 C 86 % 1018,5 hPa 0,0 l/m 0,8 km/h (0 Bft) O-NO 67 11,4 C 14,3 C 2,4 km/h (1 Bft)
04.09.2014 10:40 13,6 C 86 % 1018,5 hPa 0,0 l/m 0,8 km/h (0 Bft) NO 45 11,3 C 14,3 C 2,6 km/h (1 Bft)
04.09.2014 10:45 13,8 C 86 % 1018,5 hPa 0,0 l/m 0,5 km/h (0 Bft) O-SO 112 11,5 C 14,2 C 0,0 km/h (0 Bft)
04.09.2014 10:50 13,8 C 86 % 1018,5 hPa 0,0 l/m 0,3 km/h (0 Bft) NW 315 11,5 C 14,3 C 1,6 km/h (1 Bft)
04.09.2014 10:55 14,2 C 86 % 1018,8 hPa 0,0 l/m 0,2 km/h (0 Bft) O-NO 67 11,9 C 14,7 C 2,1 km/h (1 Bft)
04.09.2014 11:00 14,5 C 85 % 1018,8 hPa 0,0 l/m 0,2 km/h (0 Bft) N-NW 337 12,0 C 15,0 C 0,0 km/h (0 Bft)
04.09.2014 11:05 14,7 C 85 % 1018,8 hPa 0,0 l/m 0,6 km/h (0 Bft) NW 315 12,2 C 15,4 C 0,0 km/h (0 Bft)
04.09.2014 11:10 15,1 C 84 % 1018,8 hPa 0,0 l/m 1,1 km/h (1 Bft) N-NO 22 12,4 C 15,7 C 3,2 km/h (1 Bft)
04.09.2014 11:15 15,0 C 82 % 1018,7 hPa 0,0 l/m 1,9 km/h (1 Bft) N-NO 22 12,0 C 15,9 C 3,5 km/h (1 Bft)
04.09.2014 11:20 15,0 C 81 % 1018,7 hPa 0,0 l/m 2,1 km/h (1 Bft) O-NO 67 11,8 C 16,0 C 2,6 km/h (1 Bft)
04.09.2014 11:25 14,9 C 82 % 1018,7 hPa 0,0 l/m 1,8 km/h (1 Bft) O-NO 67 11,9 C 16,1 C 0,0 km/h (0 Bft)
04.09.2014 11:30 14,8 C 81 % 1018,7 hPa 0,0 l/m 1,3 km/h (1 Bft) O-SO 112 11,6 C 15,9 C 0,0 km/h (0 Bft)
04.09.2014 11:35 14,8 C 82 % 1018,8 hPa 0,0 l/m 1,0 km/h (0 Bft) O-NO 67 11,8 C 15,8 C 4,2 km/h (1 Bft)
04.09.2014 11:40 14,9 C 82 % 1018,8 hPa 0,0 l/m 1,6 km/h (1 Bft) N-NO 22 11,9 C 15,7 C 0,0 km/h (0 Bft)
04.09.2014 11:45 15,1 C 80 % 1018,8 hPa 0,0 l/m 1,8 km/h (1 Bft) O-SO 112 11,7 C 15,6 C 0,0 km/h (0 Bft)
04.09.2014 11:50 15,4 C 80 % 1018,8 hPa 0,0 l/m 1,6 km/h (1 Bft) N-NW 337 12,0 C 16,0 C 2,3 km/h (1 Bft)
04.09.2014 11:55 15,9 C 80 % 1018,9 hPa 0,0 l/m 1,6 km/h (1 Bft) O-NO 67 12,5 C 16,5 C 2,9 km/h (1 Bft)
04.09.2014 12:00 15,8 C 78 % 1018,9 hPa 0,0 l/m 1,9 km/h (1 Bft) O-SO 112 12,0 C 16,8 C 4,2 km/h (1 Bft)
04.09.2014 12:05 16,7 C 75 % 1018,9 hPa 0,0 l/m 1,8 km/h (1 Bft) O-SO 112 12,2 C 17,3 C 2,9 km/h (1 Bft)
04.09.2014 12:10 17,3 C 71 % 1018,9 hPa 0,0 l/m 2,1 km/h (1 Bft) O 90 12,0 C 18,4 C 4,3 km/h (1 Bft)
04.09.2014 12:15 17,3 C 71 % 1019,0 hPa 0,0 l/m 1,8 km/h (1 Bft) S-SO 157 12,0 C 19,4 C 4,8 km/h (1 Bft)
04.09.2014 12:20 17,5 C 72 % 1019,0 hPa 0,0 l/m 1,4 km/h (1 Bft) O-SO 112 12,4 C 19,6 C 0,0 km/h (0 Bft)
04.09.2014 12:25 16,9 C 72 % 1019,0 hPa 0,0 l/m 1,1 km/h (1 Bft) NO 45 11,8 C 19,7 C 2,7 km/h (1 Bft)
04.09.2014 12:30 16,6 C 72 % 1019,0 hPa 0,0 l/m 1,0 km/h (0 Bft) NO 45 11,5 C 19,1 C 2,3 km/h (1 Bft)
04.09.2014 12:35 15,8 C 75 % 1019,1 hPa 0,0 l/m 1,1 km/h (1 Bft) O-NO 67 11,4 C 18,3 C 3,2 km/h (1 Bft)
04.09.2014 12:40 16,0 C 75 % 1019,1 hPa 0,0 l/m 1,0 km/h (0 Bft) S-SO 157 11,6 C 17,7 C 0,0 km/h (0 Bft)
04.09.2014 12:45 16,4 C 76 % 1019,1 hPa 0,0 l/m 0,5 km/h (0 Bft) W-NW 292 12,2 C 17,7 C 0,0 km/h (0 Bft)
04.09.2014 12:50 16,8 C 76 % 1019,1 hPa 0,0 l/m 0,0 km/h (0 Bft) W-NW 292 12,5 C 17,9 C 0,0 km/h (0 Bft)
04.09.2014 12:55 17,6 C 75 % 1018,9 hPa 0,0 l/m 0,0 km/h (0 Bft) NW 315 13,1 C 18,3 C 0,0 km/h (0 Bft)
04.09.2014 13:00 17,7 C 74 % 1018,9 hPa 0,0 l/m 0,8 km/h (0 Bft) W-NW 292 13,0 C 18,9 C 2,6 km/h (1 Bft)
04.09.2014 13:05 18,2 C 73 % 1018,9 hPa 0,0 l/m 1,1 km/h (1 Bft) NW 315 13,3 C 19,4 C 3,1 km/h (1 Bft)
04.09.2014 13:10 18,3 C 70 % 1018,9 hPa 0,0 l/m 1,1 km/h (1 Bft) NW 315 12,7 C 19,8 C 0,0 km/h (0 Bft)
04.09.2014 13:15 18,8 C 68 % 1018,8 hPa 0,0 l/m 1,6 km/h (1 Bft) W-NW 292 12,8 C 20,7 C 3,9 km/h (1 Bft)
04.09.2014 13:20 18,6 C 68 % 1018,8 hPa 0,0 l/m 1,0 km/h (0 Bft) NW 315 12,6 C 20,8 C 0,0 km/h (0 Bft)
04.09.2014 13:25 18,6 C 68 % 1018,8 hPa 0,0 l/m 0,5 km/h (0 Bft) O-NO 67 12,6 C 21,0 C 0,0 km/h (0 Bft)
04.09.2014 13:30 18,5 C 69 % 1018,8 hPa 0,0 l/m 0,2 km/h (0 Bft) NW 315 12,7 C 21,0 C 0,0 km/h (0 Bft)
04.09.2014 13:35 18,2 C 70 % 1019,3 hPa 0,0 l/m 0,3 km/h (0 Bft) N-NW 337 12,6 C 20,8 C 3,1 km/h (1 Bft)
04.09.2014 13:38 17,9 C 70 % 1019,3 hPa 0,0 l/m 0,3 km/h (0 Bft) N-NW 337 12,3 C 20,2 C 2,3 km/h (1 Bft)
04.09.2014 13:40 17,9 C 70 % 1019,3 hPa 0,0 l/m 0,3 km/h (0 Bft) N-NW 337 12,3 C 20,2 C 2,3 km/h (1 Bft)
04.09.2014 13:45 18,1 C 71 % 1019,3 hPa 0,0 l/m 0,8 km/h (0 Bft) SW 225 12,8 C 19,6 C 0,0 km/h (0 Bft)
04.09.2014 13:50 17,7 C 70 % 1019,3 hPa 0,0 l/m 1,1 km/h (1 Bft) W-SW 247 12,2 C 19,4 C 1,6 km/h (1 Bft)
04.09.2014 13:55 17,6 C 72 % 1019,3 hPa 0,0 l/m 1,3 km/h (1 Bft) W 270 12,5 C 19,0 C 0,0 km/h (0 Bft)
04.09.2014 14:00 17,5 C 71 % 1019,3 hPa 0,0 l/m 1,6 km/h (1 Bft) NW 315 12,2 C 18,9 C 3,4 km/h (1 Bft)
04.09.2014 14:05 17,7 C 72 % 1019,3 hPa 0,0 l/m 2,1 km/h (1 Bft) NW 315 12,6 C 18,7 C 2,9 km/h (1 Bft)
04.09.2014 14:10 17,8 C 72 % 1019,3 hPa 0,0 l/m 2,3 km/h (1 Bft) NW 315 12,7 C 18,6 C 2,4 km/h (1 Bft)
04.09.2014 14:15 17,8 C 73 % 1019,2 hPa 0,0 l/m 2,6 km/h (1 Bft) N-NW 337 12,9 C 18,8 C 4,3 km/h (1 Bft)
04.09.2014 14:20 17,9 C 73 % 1019,2 hPa 0,0 l/m 2,6 km/h (1 Bft) W-SW 247 13,0 C 18,8 C 2,6 km/h (1 Bft)
04.09.2014 14:25 17,6 C 73 % 1019,2 hPa 0,0 l/m 2,7 km/h (1 Bft) NW 315 12,7 C 18,6 C 3,2 km/h (1 Bft)
04.09.2014 14:30 17,7 C 73 % 1019,2 hPa 0,0 l/m 2,9 km/h (1 Bft) W 270 12,8 C 18,5 C 3,4 km/h (1 Bft)
04.09.2014 14:35 18,3 C 73 % 1019,1 hPa 0,0 l/m 2,1 km/h (1 Bft) W 270 13,4 C 18,9 C 2,3 km/h (1 Bft)
04.09.2014 14:40 18,2 C 72 % 1019,1 hPa 0,0 l/m 1,4 km/h (1 Bft) SW 225 13,1 C 19,4 C 3,1 km/h (1 Bft)
04.09.2014 14:45 18,3 C 73 % 1019,1 hPa 0,0 l/m 1,9 km/h (1 Bft) W 270 13,4 C 19,7 C 3,4 km/h (1 Bft)
04.09.2014 14:50 18,4 C 73 % 1019,1 hPa 0,0 l/m 2,1 km/h (1 Bft) W-NW 292 13,5 C 19,7 C 2,9 km/h (1 Bft)
04.09.2014 14:55 18,0 C 72 % 1019,3 hPa 0,0 l/m 1,6 km/h (1 Bft) N-NO 22 12,9 C 19,4 C 2,1 km/h (1 Bft)
04.09.2014 15:00 18,5 C 73 % 1019,3 hPa 0,0 l/m 1,9 km/h (1 Bft) N-NO 22 13,6 C 19,3 C 2,6 km/h (1 Bft)
04.09.2014 15:05 18,4 C 70 % 1019,3 hPa 0,0 l/m 1,9 km/h (1 Bft) N-NO 22 12,8 C 19,8 C 2,9 km/h (1 Bft)
04.09.2014 15:10 18,7 C 70 % 1019,3 hPa 0,0 l/m 1,4 km/h (1 Bft) N-NO 22 13,1 C 19,9 C 0,0 km/h (0 Bft)
04.09.2014 15:15 18,8 C 69 % 1019,8 hPa 0,0 l/m 1,0 km/h (0 Bft) W-NW 292 13,0 C 20,5 C 0,0 km/h (0 Bft)
04.09.2014 15:20 19,3 C 69 % 1019,8 hPa 0,0 l/m 0,5 km/h (0 Bft) O 90 13,5 C 20,9 C 2,6 km/h (1 Bft)
04.09.2014 15:25 19,0 C 70 % 1019,8 hPa 0,0 l/m 0,5 km/h (0 Bft) N-NO 22 13,4 C 20,9 C 0,0 km/h (0 Bft)
04.09.2014 15:30 18,9 C 70 % 1019,8 hPa 0,0 l/m 1,4 km/h (1 Bft) NO 45 13,3 C 20,7 C 5,3 km/h (1 Bft)
04.09.2014 15:35 18,7 C 70 % 1019,4 hPa 0,0 l/m 1,9 km/h (1 Bft) N-NO 22 13,1 C 20,0 C 0,0 km/h (0 Bft)
04.09.2014 15:40 18,7 C 70 % 1019,4 hPa 0,0 l/m 1,4 km/h (1 Bft) O-NO 67 13,1 C 20,0 C 0,0 km/h (0 Bft)
04.09.2014 15:45 18,3 C 69 % 1019,4 hPa 0,0 l/m 0,8 km/h (0 Bft) O-NO 67 12,5 C 20,1 C 1,8 km/h (1 Bft)
04.09.2014 15:50 18,7 C 70 % 1019,4 hPa 0,0 l/m 0,6 km/h (0 Bft) S-SO 157 13,1 C 20,1 C 0,0 km/h (0 Bft)
04.09.2014 15:55 19,1 C 69 % 1019,5 hPa 0,0 l/m 0,8 km/h (0 Bft) N-NO 22 13,3 C 20,5 C 2,1 km/h (1 Bft)
04.09.2014 16:00 19,4 C 69 % 1019,5 hPa 0,0 l/m 0,6 km/h (0 Bft) W-SW 247 13,6 C 20,8 C 0,0 km/h (0 Bft)
04.09.2014 16:05 19,4 C 69 % 1019,5 hPa 0,0 l/m 0,2 km/h (0 Bft) N-NO 22 13,6 C 21,4 C 0,0 km/h (0 Bft)
04.09.2014 16:10 19,2 C 69 % 1019,5 hPa 0,0 l/m 0,2 km/h (0 Bft) S 180 13,4 C 21,4 C 0,0 km/h (0 Bft)
04.09.2014 16:15 18,9 C 69 % 1019,5 hPa 0,0 l/m 0,0 km/h (0 Bft) O-SO 112 13,1 C 21,1 C 0,0 km/h (0 Bft)
04.09.2014 16:20 18,6 C 69 % 1019,5 hPa 0,0 l/m 0,2 km/h (0 Bft) NO 45 12,8 C 20,8 C 0,0 km/h (0 Bft)
04.09.2014 16:25 18,7 C 71 % 1019,5 hPa 0,0 l/m 0,6 km/h (0 Bft) N 360 13,3 C 20,5 C 0,0 km/h (0 Bft)
04.09.2014 16:30 18,3 C 70 % 1019,5 hPa 0,0 l/m 1,3 km/h (1 Bft) S-SO 157 12,7 C 20,1 C 3,2 km/h (1 Bft)
04.09.2014 16:35 18,6 C 72 % 1019,3 hPa 0,0 l/m 1,9 km/h (1 Bft) N 360 13,4 C 19,7 C 5,3 km/h (1 Bft)
04.09.2014 16:40 18,5 C 71 % 1019,3 hPa 0,0 l/m 1,6 km/h (1 Bft) N-NW 337 13,1 C 19,5 C 0,0 km/h (0 Bft)
04.09.2014 16:45 18,2 C 72 % 1019,3 hPa 0,0 l/m 1,8 km/h (1 Bft) NO 45 13,1 C 19,6 C 1,8 km/h (1 Bft)
04.09.2014 16:50 18,3 C 72 % 1019,3 hPa 0,0 l/m 1,3 km/h (1 Bft) SO 135 13,2 C 19,4 C 1,9 km/h (1 Bft)
04.09.2014 16:55 18,3 C 73 % 1019,3 hPa 0,0 l/m 1,1 km/h (1 Bft) NW 315 13,4 C 19,4 C 2,9 km/h (1 Bft)
04.09.2014 17:00 18,3 C 72 % 1019,3 hPa 0,0 l/m 0,8 km/h (0 Bft) N-NO 22 13,2 C 19,3 C 0,0 km/h (0 Bft)
04.09.2014 17:05 18,5 C 73 % 1019,3 hPa 0,0 l/m 0,6 km/h (0 Bft) W 270 13,6 C 19,3 C 0,0 km/h (0 Bft)
04.09.2014 17:10 18,4 C 73 % 1019,3 hPa 0,0 l/m 0,5 km/h (0 Bft) W-SW 247 13,5 C 19,4 C 2,4 km/h (1 Bft)
04.09.2014 17:15 18,5 C 73 % 1019,2 hPa 0,0 l/m 0,2 km/h (0 Bft) W 270 13,6 C 19,5 C 0,0 km/h (0 Bft)
04.09.2014 17:20 18,5 C 73 % 1019,2 hPa 0,0 l/m 0,3 km/h (0 Bft) W-SW 247 13,6 C 19,5 C 2,3 km/h (1 Bft)
04.09.2014 17:25 18,3 C 73 % 1019,2 hPa 0,0 l/m 0,5 km/h (0 Bft) W 270 13,4 C 19,4 C 0,0 km/h (0 Bft)
04.09.2014 17:30 18,3 C 73 % 1019,2 hPa 0,0 l/m 0,5 km/h (0 Bft) W-NW 292 13,4 C 19,3 C 0,0 km/h (0 Bft)
04.09.2014 17:35 18,4 C 74 % 1019,2 hPa 0,0 l/m 0,0 km/h (0 Bft) W-SW 247 13,7 C 19,2 C 0,0 km/h (0 Bft)
04.09.2014 17:40 18,3 C 74 % 1019,2 hPa 0,0 l/m 0,0 km/h (0 Bft) W 270 13,6 C 19,2 C 0,0 km/h (0 Bft)
04.09.2014 17:45 18,2 C 74 % 1019,2 hPa 0,0 l/m 0,0 km/h (0 Bft) W 270 13,5 C 19,1 C 0,0 km/h (0 Bft)
04.09.2014 17:50 18,3 C 74 % 1019,2 hPa 0,0 l/m 0,0 km/h (0 Bft) N-NW 337 13,6 C 19,0 C 2,3 km/h (1 Bft)
04.09.2014 17:55 18,2 C 74 % 1019,0 hPa 0,0 l/m 0,2 km/h (0 Bft) N 360 13,5 C 18,9 C 0,0 km/h (0 Bft)
04.09.2014 18:00 18,2 C 75 % 1019,0 hPa 0,0 l/m 0,2 km/h (0 Bft) NW 315 13,7 C 18,9 C 0,0 km/h (0 Bft)
04.09.2014 18:05 18,2 C 75 % 1019,0 hPa 0,0 l/m 0,2 km/h (0 Bft) W-NW 292 13,7 C 18,8 C 0,0 km/h (0 Bft)
04.09.2014 18:10 18,1 C 75 % 1019,0 hPa 0,0 l/m 0,2 km/h (0 Bft) W-NW 292 13,6 C 18,8 C 0,0 km/h (0 Bft)
04.09.2014 18:15 17,9 C 75 % 1018,7 hPa 0,0 l/m 0,3 km/h (0 Bft) W-NW 292 13,4 C 18,6 C 0,0 km/h (0 Bft)
04.09.2014 18:20 17,8 C 76 % 1018,7 hPa 0,0 l/m 0,3 km/h (0 Bft) W-NW 292 13,5 C 18,6 C 0,0 km/h (0 Bft)
04.09.2014 18:25 17,6 C 76 % 1018,7 hPa 0,0 l/m 0,0 km/h (0 Bft) W-NW 292 13,3 C 18,6 C 0,0 km/h (0 Bft)
04.09.2014 18:30 17,4 C 77 % 1018,7 hPa 0,0 l/m 0,0 km/h (0 Bft) W-SW 247 13,3 C 18,5 C 0,0 km/h (0 Bft)
04.09.2014 18:35 17,2 C 78 % 1018,9 hPa 0,0 l/m 0,0 km/h (0 Bft) W-SW 247 13,3 C 18,4 C 0,0 km/h (0 Bft)
04.09.2014 18:38 17,0 C 78 % 1018,9 hPa 0,0 l/m 0,0 km/h (0 Bft) W-SW 247 13,1 C 18,2 C 1,6 km/h (1 Bft)
04.09.2014 18:40 17,0 C 78 % 1018,9 hPa 0,0 l/m 0,0 km/h (0 Bft) W-SW 247 13,1 C 18,2 C 1,6 km/h (1 Bft)
04.09.2014 18:45 16,9 C 79 % 1018,9 hPa 0,0 l/m 0,2 km/h (0 Bft) SW 225 13,2 C 17,9 C 0,0 km/h (0 Bft)
04.09.2014 18:50 16,9 C 79 % 1018,9 hPa 0,0 l/m 0,2 km/h (0 Bft) S 180 13,2 C 17,8 C 0,0 km/h (0 Bft)
04.09.2014 18:55 16,7 C 80 % 1018,8 hPa 0,0 l/m 0,0 km/h (0 Bft) S-SO 157 13,2 C 17,7 C 0,0 km/h (0 Bft)
04.09.2014 19:00 16,6 C 80 % 1018,8 hPa 0,0 l/m 0,0 km/h (0 Bft) S 180 13,1 C 17,5 C 0,0 km/h (0 Bft)
04.09.2014 19:05 16,6 C 81 % 1018,8 hPa 0,0 l/m 0,0 km/h (0 Bft) S-SO 157 13,3 C 17,2 C 0,0 km/h (0 Bft)
04.09.2014 19:10 16,5 C 81 % 1018,8 hPa 0,0 l/m 0,0 km/h (0 Bft) S-SO 157 13,2 C 17,2 C 0,0 km/h (0 Bft)
04.09.2014 19:15 16,5 C 81 % 1018,7 hPa 0,0 l/m 0,0 km/h (0 Bft) S-SO 157 13,2 C 17,0 C 0,0 km/h (0 Bft)
04.09.2014 19:20 16,4 C 82 % 1018,7 hPa 0,0 l/m 0,0 km/h (0 Bft) S-SO 157 13,3 C 17,0 C 0,0 km/h (0 Bft)
04.09.2014 19:25 16,2 C 82 % 1018,7 hPa 0,0 l/m 0,3 km/h (0 Bft) SO 135 13,1 C 16,8 C 0,0 km/h (0 Bft)
04.09.2014 19:30 16,2 C 83 % 1018,7 hPa 0,0 l/m 0,3 km/h (0 Bft) S-SO 157 13,3 C 16,7 C 0,0 km/h (0 Bft)
04.09.2014 19:35 16,2 C 83 % 1018,6 hPa 0,0 l/m 0,0 km/h (0 Bft) S-SO 157 13,3 C 16,5 C 0,0 km/h (0 Bft)
04.09.2014 19:40 16,2 C 83 % 1018,6 hPa 0,0 l/m 0,0 km/h (0 Bft) S-SO 157 13,3 C 16,5 C 0,0 km/h (0 Bft)
04.09.2014 19:45 16,2 C 83 % 1018,6 hPa 0,0 l/m 0,0 km/h (0 Bft) SO 135 13,3 C 16,4 C 0,0 km/h (0 Bft)
04.09.2014 19:50 16,0 C 83 % 1018,6 hPa 0,0 l/m 0,0 km/h (0 Bft) S-SO 157 13,1 C 16,3 C 0,0 km/h (0 Bft)
04.09.2014 19:55 16,0 C 83 % 1018,6 hPa 0,0 l/m 0,0 km/h (0 Bft) S-SO 157 13,1 C 16,2 C 0,0 km/h (0 Bft)
04.09.2014 20:00 16,0 C 84 % 1018,6 hPa 0,0 l/m 0,0 km/h (0 Bft) S-SO 157 13,3 C 16,1 C 0,0 km/h (0 Bft)
04.09.2014 20:05 16,0 C 84 % 1018,6 hPa 0,0 l/m 0,0 km/h (0 Bft) S 180 13,3 C 16,1 C 0,0 km/h (0 Bft)
04.09.2014 20:10 15,9 C 85 % 1018,6 hPa 0,0 l/m 0,0 km/h (0 Bft) S 180 13,4 C 16,1 C 0,0 km/h (0 Bft)
04.09.2014 20:15 15,9 C 85 % 1018,6 hPa 0,0 l/m 0,0 km/h (0 Bft) SO 135 13,4 C 15,9 C 0,0 km/h (0 Bft)
04.09.2014 20:20 15,8 C 85 % 1018,6 hPa 0,0 l/m 0,0 km/h (0 Bft) SO 135 13,3 C 15,9 C 0,0 km/h (0 Bft)
04.09.2014 20:25 15,8 C 86 % 1018,6 hPa 0,0 l/m 0,0 km/h (0 Bft) S 180 13,5 C 15,8 C 0,0 km/h (0 Bft)
04.09.2014 20:30 15,8 C 86 % 1018,6 hPa 0,0 l/m 0,0 km/h (0 Bft) S-SO 157 13,5 C 15,8 C 0,0 km/h (0 Bft)
04.09.2014 20:35 15,8 C 86 % 1018,6 hPa 0,0 l/m 0,3 km/h (0 Bft) S 180 13,5 C 15,8 C 0,0 km/h (0 Bft)
04.09.2014 20:40 15,8 C 86 % 1018,6 hPa 0,0 l/m 0,6 km/h (0 Bft) S-SO 157 13,5 C 15,8 C 0,0 km/h (0 Bft)
04.09.2014 20:45 15,7 C 86 % 1018,6 hPa 0,0 l/m 0,2 km/h (0 Bft) S-SO 157 13,4 C 15,7 C 0,0 km/h (0 Bft)
04.09.2014 20:50 15,6 C 86 % 1018,6 hPa 0,0 l/m 0,0 km/h (0 Bft) S 180 13,3 C 15,7 C 0,0 km/h (0 Bft)
04.09.2014 20:55 15,6 C 86 % 1018,5 hPa 0,0 l/m 0,0 km/h (0 Bft) S-SO 157 13,3 C 15,7 C 0,0 km/h (0 Bft)
04.09.2014 21:00 15,5 C 86 % 1018,5 hPa 0,0 l/m 0,0 km/h (0 Bft) O-SO 112 13,2 C 15,7 C 1,6 km/h (1 Bft)
04.09.2014 21:05 15,6 C 86 % 1018,5 hPa 0,0 l/m 0,0 km/h (0 Bft) S-SO 157 13,3 C 15,6 C 0,0 km/h (0 Bft)
04.09.2014 21:10 15,5 C 87 % 1018,5 hPa 0,0 l/m 0,0 km/h (0 Bft) SO 135 13,3 C 15,6 C 0,0 km/h (0 Bft)
04.09.2014 21:15 15,5 C 87 % 1018,4 hPa 0,0 l/m 0,0 km/h (0 Bft) S-SO 157 13,3 C 15,5 C 0,0 km/h (0 Bft)
04.09.2014 21:20 15,5 C 87 % 1018,4 hPa 0,0 l/m 0,0 km/h (0 Bft) SO 135 13,3 C 15,5 C 0,0 km/h (0 Bft)
04.09.2014 21:25 15,5 C 87 % 1018,4 hPa 0,0 l/m 0,2 km/h (0 Bft) S 180 13,3 C 15,5 C 1,8 km/h (1 Bft)
04.09.2014 21:30 15,5 C 87 % 1018,4 hPa 0,0 l/m 0,8 km/h (0 Bft) S 180 13,3 C 15,5 C 3,2 km/h (1 Bft)
04.09.2014 21:35 15,5 C 87 % 1018,4 hPa 0,0 l/m 1,1 km/h (1 Bft) S-SO 157 13,3 C 15,5 C 0,0 km/h (0 Bft)
04.09.2014 21:40 15,4 C 87 % 1018,4 hPa 0,0 l/m 1,0 km/h (0 Bft) S 180 13,2 C 15,4 C 3,1 km/h (1 Bft)
04.09.2014 21:45 15,1 C 87 % 1018,4 hPa 0,0 l/m 0,5 km/h (0 Bft) S-SO 157 13,0 C 15,2 C 2,9 km/h (1 Bft)
04.09.2014 21:50 14,8 C 88 % 1018,4 hPa 0,0 l/m 0,6 km/h (0 Bft) S 180 12,8 C 15,0 C 0,0 km/h (0 Bft)
04.09.2014 21:55 14,6 C 88 % 1018,4 hPa 0,0 l/m 0,3 km/h (0 Bft) S 180 12,6 C 14,7 C 1,9 km/h (1 Bft)
04.09.2014 22:00 14,4 C 88 % 1018,4 hPa 0,0 l/m 0,3 km/h (0 Bft) S-SO 157 12,4 C 14,6 C 1,6 km/h (1 Bft)
04.09.2014 22:05 14,3 C 88 % 1018,4 hPa 0,0 l/m 0,3 km/h (0 Bft) S-SO 157 12,3 C 14,3 C 0,0 km/h (0 Bft)
04.09.2014 22:10 14,2 C 88 % 1018,4 hPa 0,0 l/m 0,0 km/h (0 Bft) S-SO 157 12,2 C 14,1 C 0,0 km/h (0 Bft)
04.09.2014 22:15 14,1 C 88 % 1018,2 hPa 0,0 l/m 0,0 km/h (0 Bft) O-NO 67 12,1 C 14,1 C 0,0 km/h (0 Bft)
04.09.2014 22:20 14,1 C 88 % 1018,2 hPa 0,0 l/m 0,0 km/h (0 Bft) SO 135 12,1 C 14,1 C 0,0 km/h (0 Bft)
04.09.2014 22:25 14,2 C 89 % 1018,2 hPa 0,0 l/m 0,0 km/h (0 Bft) S 180 12,4 C 14,1 C 0,0 km/h (0 Bft)
04.09.2014 22:30 14,2 C 89 % 1018,2 hPa 0,0 l/m 0,0 km/h (0 Bft) S 180 12,4 C 14,1 C 0,0 km/h (0 Bft)
04.09.2014 22:35 14,0 C 89 % 1018,4 hPa 0,0 l/m 0,2 km/h (0 Bft) O-NO 67 12,2 C 14,1 C 0,0 km/h (0 Bft)
04.09.2014 22:40 14,0 C 89 % 1018,4 hPa 0,0 l/m 0,2 km/h (0 Bft) NO 45 12,2 C 14,1 C 0,0 km/h (0 Bft)
04.09.2014 22:45 14,0 C 89 % 1018,4 hPa 0,0 l/m 0,0 km/h (0 Bft) S-SO 157 12,2 C 13,9 C 0,0 km/h (0 Bft)
04.09.2014 22:50 13,6 C 89 % 1018,4 hPa 0,0 l/m 0,0 km/h (0 Bft) W-SW 247 11,8 C 13,8 C 0,0 km/h (0 Bft)
04.09.2014 22:55 13,5 C 89 % 1018,4 hPa 0,0 l/m 0,0 km/h (0 Bft) S 180 11,7 C 13,4 C 0,0 km/h (0 Bft)
04.09.2014 23:00 13,5 C 89 % 1018,4 hPa 0,0 l/m 0,0 km/h (0 Bft) S 180 11,7 C 13,3 C 0,0 km/h (0 Bft)
04.09.2014 23:05 13,0 C 89 % 1018,4 hPa 0,0 l/m 0,2 km/h (0 Bft) S 180 11,2 C 13,1 C 0,0 km/h (0 Bft)
04.09.2014 23:10 13,2 C 89 % 1018,4 hPa 0,0 l/m 0,2 km/h (0 Bft) S 180 11,4 C 13,0 C 0,0 km/h (0 Bft)
04.09.2014 23:15 13,1 C 90 % 1018,5 hPa 0,0 l/m 0,6 km/h (0 Bft) S 180 11,5 C 12,9 C 0,0 km/h (0 Bft)
04.09.2014 23:20 13,0 C 90 % 1018,5 hPa 0,0 l/m 1,0 km/h (0 Bft) S-SW 202 11,4 C 12,8 C 2,3 km/h (1 Bft)
04.09.2014 23:25 12,9 C 91 % 1018,5 hPa 0,0 l/m 0,6 km/h (0 Bft) S 180 11,5 C 12,7 C 2,3 km/h (1 Bft)
04.09.2014 23:30 12,8 C 91 % 1018,5 hPa 0,0 l/m 1,3 km/h (1 Bft) S-SO 157 11,4 C 12,6 C 3,1 km/h (1 Bft)
04.09.2014 23:35 12,8 C 92 % 1018,2 hPa 0,0 l/m 1,3 km/h (1 Bft) SO 135 11,5 C 12,5 C 0,0 km/h (0 Bft)
04.09.2014 23:38 12,8 C 92 % 1018,2 hPa 0,0 l/m 1,1 km/h (1 Bft) S 180 11,5 C 12,4 C 2,3 km/h (1 Bft)
04.09.2014 23:40 12,8 C 92 % 1018,2 hPa 0,0 l/m 1,1 km/h (1 Bft) S 180 11,5 C 12,4 C 2,3 km/h (1 Bft)
04.09.2014 23:50 12,5 C 92 % 1018,2 hPa 0,0 l/m 0,5 km/h (0 Bft) S 180 11,2 C 12,3 C 0,0 km/h (0 Bft)
04.09.2014 23:55 11,7 C 92 % 1018,1 hPa 0,0 l/m 0,2 km/h (0 Bft) NO 45 10,4 C 12,0 C 0,0 km/h (0 Bft)
_ Min-Zeit 23:55 13:25 07:30 - 23:00 - - 23:55 07:20 23:55
Minimum _ 11,7 C 68 % 1017,8 hPa - 0,0 km/h (0 Bft) - - 10,4 C 11,6 C 0,0 km/h (0 Bft)
_ Max-Zeit 16:05 08:30 15:30 23:55 01:00 - - 18:05 16:10 03:15
Maximum _ 19,4 C 94 % 1019,8 hPa 0,0 l/m 5,0 km/h
O-NO (1 Bft)
- - 13,7 C 21,4 C 10,3 km/h
O (2 Bft)
Durchschnitt _ 14,6 C 85 % 1018,6 hPa #0,0 l/m 1,4 km/h (1 Bft) O-NO - 12,0 C 15,1 C 2,0 km/h (1 Bft)